• In Czech Republic
  • List of Countries
  • For 7 days
  • Water Temperature
  • Satellite Maps
  • Weather Map
  • Weather Widgets
  • user-avatar
    Login

    Hourly Weather Waterbury

    Today, 20 February, Tuesday

    Time Temperature Precipitation Wind Pressure Humidity
    00:00 +7°C° 0 mm 3 mps 756 mmHg 96%
    01:00 +7°C° 0 mm 3 mps 755 mmHg 97%
    02:00 +7°C° 0.1 mm 3 mps 755 mmHg 97%
    03:00 +7°C° 0.1 mm 3 mps 755 mmHg 97%
    04:00 +8°C° 0.1 mm 3 mps 755 mmHg 97%
    05:00 +7°C° 0 mm 3 mps 755 mmHg 97%
    06:00 +7°C° 0 mm 3 mps 756 mmHg 97%
    07:00 +7°C° 0 mm 3 mps 756 mmHg 97%
    08:00 +8°C° 0 mm 3 mps 756 mmHg 96%
    09:00 +9°C° 0 mm 3 mps 756 mmHg 95%
    10:00 +10°C° 0 mm 4 mps 756 mmHg 94%
    11:00 +11°C° 0 mm 4 mps 756 mmHg 91%
    12:00 +13°C° 0 mm 4 mps 755 mmHg 88%
    13:00 +14°C° 0 mm 4 mps 755 mmHg 85%
    14:00 +14°C° 0 mm 4 mps 755 mmHg 85%
    15:00 +15°C° 0 mm 4 mps 755 mmHg 84%
    16:00 +15°C° 0 mm 4 mps 755 mmHg 84%
    17:00 +14°C° 0 mm 4 mps 755 mmHg 87%
    18:00 +13°C° 0 mm 3 mps 756 mmHg 90%
    19:00 +12°C° 0 mm 3 mps 756 mmHg 93%
    20:00 +13°C° 0 mm 3 mps 756 mmHg 94%
    21:00 +13°C° 0 mm 3 mps 756 mmHg 94%
    22:00 +13°C° 0 mm 3 mps 756 mmHg 94%
    23:00 +13°C° 0 mm 3 mps 757 mmHg 95%

    Tomorrow, 21 February, Wednesday

    Time Temperature Precipitation Wind Pressure Humidity
    00:00 +12°C° 0 mm 3 mps 757 mmHg 96%
    01:00 +12°C° 0 mm 3 mps 757 mmHg 97%
    02:00 +12°C° 0 mm 3 mps 756 mmHg 97%
    03:00 +12°C° 0 mm 3 mps 756 mmHg 97%
    04:00 +12°C° 0 mm 4 mps 756 mmHg 97%
    05:00 +12°C° 0 mm 4 mps 756 mmHg 97%
    06:00 +12°C° 0 mm 4 mps 756 mmHg 97%
    07:00 +13°C° 0 mm 4 mps 756 mmHg 96%
    08:00 +13°C° 0 mm 4 mps 756 mmHg 95%
    09:00 +14°C° 0 mm 4 mps 756 mmHg 93%
    10:00 +14°C° 0 mm 5 mps 756 mmHg 91%
    11:00 +15°C° 0 mm 5 mps 755 mmHg 88%
    12:00 +16°C° 0 mm 5 mps 755 mmHg 85%
    13:00 +17°C° 0 mm 5 mps 754 mmHg 83%
    14:00 +19°C° 0 mm 5 mps 754 mmHg 81%
    15:00 +19°C° 0 mm 4 mps 754 mmHg 79%
    16:00 +20°C° 0 mm 4 mps 754 mmHg 77%
    17:00 +19°C° 0.1 mm 4 mps 754 mmHg 82%
    18:00 +18°C° 0.1 mm 3 mps 755 mmHg 87%
    19:00 +17°C° 0.1 mm 3 mps 756 mmHg 91%
    20:00 +14°C° 0.1 mm 3 mps 756 mmHg 88%
    21:00 +13°C° 0.1 mm 4 mps 757 mmHg 84%
    22:00 +11°C° 0.1 mm 4 mps 758 mmHg 81%
    23:00 +10°C° 0 mm 4 mps 758 mmHg 79%

    Day after tomorrow, 22 February, Thursday

    Time Temperature Precipitation Wind Pressure Humidity
    00:00 +7°C° 0 mm 4 mps 758 mmHg 78%
    01:00 +6°C° 0 mm 4 mps 759 mmHg 76%
    02:00 +5°C° 0 mm 3 mps 759 mmHg 77%
    03:00 +5°C° 0 mm 3 mps 760 mmHg 77%
    04:00 +4°C° 0 mm 3 mps 760 mmHg 78%
    05:00 +4°C° 0 mm 3 mps 760 mmHg 77%
    06:00 +4°C° 0 mm 3 mps 761 mmHg 76%
    07:00 +4°C° 0 mm 3 mps 761 mmHg 75%
    08:00 +4°C° 0.6 mm 3 mps 762 mmHg 77%
    09:00 +3°C° 0.6 mm 3 mps 763 mmHg 78%
    10:00 +3°C° 0.6 mm 3 mps 763 mmHg 79%
    11:00 +2°C° 1 mm 3 mps 763 mmHg 81%
    12:00 +2°C° 1 mm 3 mps 763 mmHg 84%
    13:00 +1°C° 1 mm 3 mps 763 mmHg 86%
    14:00 +1°C° 0.9 mm 3 mps 763 mmHg 88%
    15:00 +2°C° 0.9 mm 2 mps 763 mmHg 89%
    16:00 +2°C° 0.9 mm 2 mps 763 mmHg 90%
    17:00 +2°C° 0.1 mm 2 mps 763 mmHg 91%
    18:00 +2°C° 0.1 mm 1 mps 763 mmHg 93%
    19:00 +1°C° 0.1 mm 1 mps 764 mmHg 94%
    20:00 +1°C° 0 mm 1 mps 764 mmHg 94%
    21:00 +1°C° 0 mm 1 mps 764 mmHg 94%
    22:00 0°C° 0 mm 1 mps 764 mmHg 94%
    23:00 0°C° 0 mm 1 mps 764 mmHg 94%

    23 February, Friday

    Time Temperature Precipitation Wind Pressure Humidity
    00:00 0°C° 0 mm 1 mps 764 mmHg 94%
    01:00 0°C° 0 mm 1 mps 764 mmHg 93%
    02:00 -1°C° 0 mm 1 mps 764 mmHg 93%
    03:00 -1°C° 0 mm 1 mps 764 mmHg 92%
    04:00 -1°C° 0 mm 1 mps 764 mmHg 92%
    05:00 -1°C° 0 mm 1 mps 764 mmHg 92%
    06:00 -1°C° 0 mm 1 mps 764 mmHg 91%
    07:00 -1°C° 0 mm 1 mps 764 mmHg 91%
    08:00 -2°C° 0 mm 2 mps 764 mmHg 86%
    09:00 +1°C° 0 mm 2 mps 764 mmHg 81%
    10:00 +2°C° 0 mm 3 mps 764 mmHg 75%
    11:00 +2°C° 0 mm 3 mps 763 mmHg 74%
    12:00 +3°C° 0 mm 3 mps 762 mmHg 74%
    13:00 +4°C° 0 mm 3 mps 762 mmHg 73%
    14:00 +3°C° 0 mm 3 mps 761 mmHg 76%
    15:00 +2°C° 0 mm 3 mps 760 mmHg 79%
    16:00 +2°C° 0 mm 3 mps 759 mmHg 82%
    17:00 +2°C° 0.9 mm 3 mps 758 mmHg 86%
    18:00 +1°C° 0.9 mm 3 mps 758 mmHg 89%
    19:00 +2°C° 0.9 mm 2 mps 757 mmHg 93%
    20:00 +2°C° 1.5 mm 2 mps 756 mmHg 94%
    21:00 +2°C° 1.5 mm 2 mps 755 mmHg 96%
    22:00 +3°C° 1.5 mm 2 mps 754 mmHg 97%
    23:00 +4°C° 0.7 mm 1 mps 753 mmHg 97%

    24 February, Saturday

    Time Temperature Precipitation Wind Pressure Humidity
    00:00 +4°C° 0.7 mm 1 mps 752 mmHg 98%
    01:00 +3°C° 0.7 mm 0 mps 751 mmHg 98%
    02:00 +4°C° 0 mm 1 mps 751 mmHg 98%
    03:00 +5°C° 0 mm 1 mps 750 mmHg 98%
    04:00 +5°C° 0 mm 1 mps 750 mmHg 98%
    05:00 +5°C° 0 mm 1 mps 750 mmHg 98%
    06:00 +5°C° 0 mm 1 mps 750 mmHg 98%
    07:00 +5°C° 0 mm 1 mps 750 mmHg 97%
    08:00 +7°C° 0 mm 1 mps 750 mmHg 93%
    09:00 +9°C° 0 mm 1 mps 750 mmHg 89%
    10:00 +11°C° 0 mm 1 mps 750 mmHg 85%
    11:00 +12°C° 0 mm 1 mps 749 mmHg 84%
    12:00 +13°C° 0 mm 1 mps 748 mmHg 82%
    13:00 +13°C° 0 mm 1 mps 748 mmHg 81%
    14:00 +12°C° 0.8 mm 1 mps 748 mmHg 86%
    15:00 +11°C° 0.8 mm 1 mps 747 mmHg 91%
    16:00 +10°C° 0.8 mm 1 mps 747 mmHg 96%
    17:00 +10°C° 0.9 mm 1 mps 747 mmHg 97%
    18:00 +9°C° 0.9 mm 1 mps 748 mmHg 97%
    19:00 +9°C° 0.9 mm 1 mps 748 mmHg 97%
    20:00 +8°C° 0.5 mm 2 mps 748 mmHg 97%
    21:00 +8°C° 0.5 mm 2 mps 748 mmHg 97%
    22:00 +8°C° 0.5 mm 2 mps 748 mmHg 96%
    23:00 +7°C° 0.1 mm 2 mps 748 mmHg 96%

    25 February, Sunday

    Time Temperature Precipitation Wind Pressure Humidity
    00:00 +7°C° 0.1 mm 3 mps 749 mmHg 95%
    01:00 +7°C° 0.1 mm 3 mps 749 mmHg 95%
    02:00 +7°C° 0.1 mm 3 mps 749 mmHg 94%
    03:00 +5°C° 0.1 mm 4 mps 748 mmHg 93%
    04:00 +5°C° 0.1 mm 4 mps 748 mmHg 93%
    05:00 +5°C° 0.5 mm 5 mps 748 mmHg 92%
    06:00 +3°C° 0.5 mm 5 mps 748 mmHg 91%
    07:00 +2°C° 0.5 mm 6 mps 748 mmHg 90%
    08:00 +2°C° 2.6 mm 6 mps 748 mmHg 90%
    09:00 +2°C° 2.6 mm 6 mps 747 mmHg 91%
    10:00 +2°C° 2.6 mm 6 mps 747 mmHg 92%
    11:00 +2°C° 2 mm 6 mps 746 mmHg 92%
    12:00 +3°C° 2 mm 6 mps 744 mmHg 93%
    13:00 +3°C° 2 mm 6 mps 743 mmHg 93%
    14:00 +5°C° 1.2 mm 5 mps 742 mmHg 94%
    15:00 +5°C° 1.2 mm 5 mps 740 mmHg 95%
    16:00 +5°C° 1.2 mm 4 mps 739 mmHg 96%
    17:00 +7°C° 0.5 mm 3 mps 739 mmHg 97%
    18:00 +7°C° 0.5 mm 2 mps 739 mmHg 97%
    19:00 +8°C° 0.5 mm 1 mps 738 mmHg 98%
    20:00 +7°C° 0 mm 3 mps 739 mmHg 91%
    21:00 +6°C° 0 mm 4 mps 740 mmHg 84%
    22:00 +5°C° 0 mm 6 mps 741 mmHg 76%
    23:00 +4°C° 0 mm 6 mps 742 mmHg 76%
    Show more